User: anonymous   Login
Location: Brabourne
(51.1333°N, 1.0000°E)
Time: 04:50:44
(UTC+00:00)
Language:

Cosmos 1782 - Orbit

View from above orbital plane
View from above orbital plane
View from above satellite
View from above satellite

Ground track
Ground track

The orbit data is extracted from the following two-line orbital elements,

1 16986U 86074A   21261.46916177  .00000328  00000-0  19516-4 0  9997
2 16986  82.5045  47.9869 0014188  69.0800 291.1946 15.07648921883772
Epoch (UTC): 18 September 2021 11:15:35
Eccentricity: 0.0014188
inclination: 82.5045°
perigee height: 533 km
apogee height: 553 km
right ascension of ascending node: 47.9869°
argument of perigee: 69.0800°
revolutions per day: 15.07648921
mean anomaly at epoch: 291.1946°
orbit number at epoch: 88377

The dashed part of the orbit path shows where the satellite is in the earth's shadow,  

DLR